[Iaude] MPEC K76: 2017 BM235 [a=44.99,e=0.09,i=3.8,H=9.00]

mpec at cfa.harvard.edu mpec at cfa.harvard.edu
Thu May 23 13:16:14 EDT 2024


M.P.E.C. 2024-K76                                  Issued 2024 May 23, 17:14 UT

     The Minor Planet Electronic Circulars contain information on unusual
         minor planets, routine data on comets and natural satellites,
         and occasional editorial announcements.  They are published
    on behalf of Division F of the International Astronomical Union by the
          Minor Planet Center, Smithsonian Astrophysical Observatory,
                          Cambridge, MA 02138, U.S.A.
			  
             Prepared using the Tamkin Foundation Computer Network

                              MPC at CFA.HARVARD.EDU
            URL https://www.minorplanetcenter.net/    ISSN 1523-6714

                                   2017 BM235                                   


Additional Observations:
     K17BN5M 1C2016 04 02.39340712 24 54.06 +00 02 12.8                WEK076T09
     K17BN5M 1C2016 04 02.44456512 24 53.83 +00 02 14.2                WEK076T09
     K17BN5M 1C2016 06 05.31148812 21 32.01 +00 20 41.5                WEK076T09
     K17BN5M 1C2016 06 05.35825112 21 31.96 +00 20 41.6                WEK076T09

Observer details:
T09 Subaru Telescope, Maunakea.  Observer .  Measurer S. Deen.  8.3-m Subaru
    Telescope + CCD.

Orbital elements:
2017 BM235                                                                      
Epoch 2024 Mar. 31.0 TT = JDT 2460400.5                 Alexandersen            
M  45.37578              (2000.0)            P               Q                  
n   0.00326571     Peri.   96.96648     -0.79867032     -0.59988442             
a  44.9935827      Node    46.18554     +0.52279770     -0.73084686             
e   0.0926212      Incl.    3.78118     +0.29800720     -0.32557880             
P 302              H    9.00          G   0.15           U   8                  
Residuals in seconds of arc
160402 T09  0.0   0.0     170128 T09  0.1+  0.0     170202 T09  0.1-  0.0
160402 T09  0.0   0.0     170128 T09  0.1+  0.1+    170223 T09  0.0   0.2-
160605 T09  0.0   0.0     170128 T09  0.1+  0.1-    170223 T09  0.1-  0.1-
160605 T09  0.0   0.0     170202 T09  0.1+  0.1-    170223 T09  0.0   0.1+
170128 T09  0.1-  0.0     170202 T09  0.1+  0.1+
170128 T09  0.0   0.1+    170202 T09  0.1-  0.1+

Ephemeris:
2017 BM235               a,e,i = 44.99, 0.09, 4                  q = 40.8262
Date    TT    R. A. (2000) Decl.     Delta      r    Elong.  Phase     V
2024 04 23    13 03 37.5 -04 43 21  41.3219 42.2862   163.4     0.4    25.3
...
2024 05 08    13 02 36.9 -04 37 36  41.4245 42.2891   148.6     0.7    25.3
...
2024 05 16    13 02 08.6 -04 35 01  41.5029 42.2907   140.7     0.9    25.4
...
2024 05 22    13 01 49.8 -04 33 21  41.5713 42.2918   134.9     1.0    25.4
2024 05 23    13 01 46.9 -04 33 06  41.5835 42.2920   133.9     1.0    25.4
2024 05 24    13 01 44.0 -04 32 51  41.5958 42.2922   132.9     1.0    25.4
...
2024 05 30    13 01 28.3 -04 31 32  41.6738 42.2934   127.1     1.1    25.4
...
2024 06 07    13 01 11.3 -04 30 12  41.7876 42.2949   119.4     1.2    25.4
...
2024 06 22    13 00 52.9 -04 29 11  42.0235 42.2978   105.0     1.3    25.4

M. P. C. Staff               (C) Copyright 2024 MPC           M.P.E.C. 2024-K76





More information about the Iaude mailing list